Flag for Germany Weather past 2 weeks in Nürburg, Rhineland-Palatinate, Germany

57 °F

Low clouds.

Feels Like: 57 °F
Forecast: 51 / 58 °F
Wind: 3 mph from Southwest

Location: Nuerburg-Barweiler

Current Time: Oct 6, 2015 at 9:07:59 PM

Latest Report: Oct 6, 2015 at 8:00 PM

Visibility: 17 mi

Pressure: 29.67 "Hg (27.62 "Hg at 601m altitude)

Humidity: 96%

Dew point: 56 °F

Location of NürburgLocation

Historic Weather in Nürburg — Graph


Nürburg temperature yesterday

Maximum temperature yesterday: 55 °F (at 6:00 PM)
Minimum temperature yesterday: 48 °F (at 8:00 AM)
Average temperature yesterday: 52 °F

Past Weeks' High & Low Weather Summary

High64 °F (Oct 3, 3:00 PM)100% (Sep 26, 9:00 AM)30.62 "Hg (Sep 26, 9:00 AM)
Low38 °F (Oct 2, 8:00 AM)49% (Oct 1, 4:00 PM)29.55 "Hg (Sep 22, 7:00 PM)
Average51 °F82%30.15 "Hg
* Reported Sep 21 8:00 PM — Oct 6 8:00 PM, Nürburg, Weather by CustomWeather, © 2015

Note: Actual official high and low records may vary slightly from our data, if they occured in-between our weather recording intervals... More about our weather records


Nürburg weather history for previous 24 hours

Time TempWeatherWind HumidityBarometerVisibility
8:00 PM
Tue, Oct 6
57 °FLow clouds.3 mph96%29.67 "Hg17 mi
7:00 PM57 °FOvercast.3 mph95%29.65 "Hg25 mi
6:00 PM58 °FLow clouds.3 mph92%29.64 "Hg28 mi
5:00 PM59 °FLow clouds.3 mph94%29.62 "Hg19 mi
4:00 PM60 °FLow clouds.3 mph94%29.59 "Hg16 mi
3:00 PM60 °FLight rain. Low clouds.5 mph95%29.63 "Hg16 mi
2:00 PM61 °FLow clouds.2 mph96%29.63 "Hg16 mi
1:00 PM62 °FLow clouds.3 mph87%29.65 "Hg31 mi
12:00 PM61 °FLow clouds.3 mph87%29.65 "Hg31 mi
11:00 AMN/APassing clouds.6 mphN/AN/A16 mi
10:00 AM57 °FLow clouds.3 mph94%29.64 "Hg25 mi
9:00 AM57 °FLow clouds.5 mph95%29.65 "Hg25 mi
8:00 AM56 °FLow clouds.5 mph97%29.65 "Hg12 mi
7:00 AM56 °FLow clouds.6 mph96%29.65 "Hg12 mi
5:00 AM57 °FLow clouds.5 mph96%29.63 "Hg13 mi
4:00 AM57 °FLow clouds.5 mph96%29.63 "Hg34 mi
3:00 AM55 °FDrizzle. Low clouds.5 mph98%29.64 "Hg4 mi
2:00 AM55 °FDrizzle. Low clouds.8 mph97%29.65 "Hg2 mi
1:00 AM55 °FLight freezing rain. Low clouds.8 mph96%29.67 "Hg1 mi
11:00 PM
Mon, Oct 5
N/APassing clouds.12 mphN/AN/A2 mi
10:00 PM54 °FLight rain. Low clouds.7 mph94%29.76 "Hg4 mi
9:00 PM54 °FLight rain. Low clouds.6 mph96%29.78 "Hg3 mi
Weather by CustomWeather, © 2015

See weather overviewHow to use our weather pages